| time (UTC) | temp F | wind direction | speed knots | gust knots | rain 1hr in | rain 24hr in | rain mn in | humidity % | barometer mb |
| 20260507232531 | 58 | 192 | 4.3 | 6.1 | 0.00 | 0.01 | 0.00 | 71 | 1013.8 |
| 20260507232032 | 58 | 188 | 2.6 | 5.2 | 0.00 | 0.01 | 0.00 | 70 | 1013.8 |
| 20260507231548 | 58 | 171 | 2.6 | 5.2 | 0.00 | 0.01 | 0.00 | 70 | 1013.9 |
| 20260507231037 | 58 | 165 | 1.7 | 6.1 | 0.00 | 0.01 | 0.00 | 69 | 1013.9 |
| 20260507230532 | 59 | 186 | 2.6 | 6.1 | 0.00 | 0.01 | 0.00 | 69 | 1013.8 |
| 20260507230050 | 59 | 202 | 3.5 | 6.1 | 0.00 | 0.01 | 0.00 | 69 | 1014.0 |
| 20260507225531 | 59 | 186 | 2.6 | 5.2 | 0.00 | 0.01 | 0.00 | 69 | 1014.1 |
| 20260507225031 | 59 | 162 | 2.6 | 5.2 | 0.00 | 0.01 | 0.00 | 69 | 1014.2 |
| 20260507224548 | 59 | 186 | 1.7 | 4.3 | 0.00 | 0.01 | 0.00 | 69 | 1014.2 |
| 20260507224031 | 59 | 186 | 1.7 | 4.3 | 0.00 | 0.01 | 0.00 | 68 | 1014.2 |
| 20260507223532 | 59 | 5 | 0.9 | 5.2 | 0.00 | 0.01 | 0.00 | 68 | 1014.3 |
| 20260507223047 | 59 | 5 | 2.6 | 7.0 | 0.00 | 0.01 | 0.00 | 68 | 1014.3 |
| 20260507222530 | 59 | 199 | 4.3 | 7.8 | 0.00 | 0.01 | 0.00 | 68 | 1014.3 |
| 20260507222034 | 60 | 188 | 4.3 | 7.8 | 0.00 | 0.01 | 0.00 | 68 | 1014.1 |
| 20260507221542 | 60 | 186 | 4.3 | 7.8 | 0.00 | 0.01 | 0.00 | 67 | 1014.2 |
| 20260507221033 | 60 | 173 | 3.5 | 6.1 | 0.00 | 0.01 | 0.00 | 67 | 1014.1 |
| 20260507220530 | 60 | 184 | 3.5 | 6.1 | 0.00 | 0.01 | 0.00 | 67 | 1014.1 |
| 20260507220048 | 60 | 184 | 3.5 | 6.1 | 0.00 | 0.01 | 0.00 | 67 | 1014.0 |
| 20260507215531 | 60 | 179 | 3.5 | 6.1 | 0.00 | 0.01 | 0.01 | 68 | 1014.1 |
| 20260507215031 | 60 | 199 | 3.5 | 6.1 | 0.00 | 0.01 | 0.01 | 67 | 1014.1 |
| 20260507214549 | 60 | 191 | 3.5 | 6.1 | 0.00 | 0.01 | 0.01 | 67 | 1014.0 |
| 20260507214030 | 60 | 184 | 3.5 | 6.1 | 0.00 | 0.01 | 0.01 | 67 | 1014.0 |
| 20260507213534 | 61 | 194 | 2.6 | 5.2 | 0.00 | 0.01 | 0.01 | 67 | 1014.0 |
| 20260507213048 | 61 | 191 | 2.6 | 5.2 | 0.00 | 0.01 | 0.01 | 67 | 1014.0 |
| 20260507212530 | 61 | 194 | 2.6 | 6.1 | 0.00 | 0.01 | 0.01 | 67 | 1014.0 |
| 20260507212030 | 61 | 192 | 3.5 | 7.8 | 0.00 | 0.01 | 0.01 | 67 | 1014.0 |
| 20260507211552 | 61 | 188 | 4.3 | 7.8 | 0.00 | 0.01 | 0.01 | 66 | 1013.8 |
| 20260507211034 | 61 | 198 | 3.5 | 6.1 | 0.00 | 0.01 | 0.01 | 66 | 1013.9 |
| 20260507210530 | 61 | 198 | 3.5 | 7.0 | 0.00 | 0.01 | 0.01 | 66 | 1013.9 |
| 20260507210046 | 61 | 193 | 4.3 | 7.0 | 0.00 | 0.01 | 0.01 | 66 | 1014.0 |
| 20260507205531 | 62 | 201 | 3.5 | 7.0 | 0.00 | 0.01 | 0.01 | 65 | 1014.0 |
| 20260507205031 | 62 | 204 | 4.3 | 7.0 | 0.00 | 0.01 | 0.01 | 65 | 1014.0 |
| 20260507204551 | 62 | 193 | 4.3 | 7.0 | 0.00 | 0.01 | 0.01 | 65 | 1013.9 |
| 20260507204031 | 62 | 195 | 4.3 | 7.0 | 0.00 | 0.01 | 0.01 | 64 | 1013.9 |
| 20260507203531 | 62 | 186 | 3.5 | 7.0 | 0.00 | 0.01 | 0.01 | 64 | 1013.9 |
| 20260507203048 | 63 | 183 | 4.3 | 6.1 | 0.00 | 0.01 | 0.01 | 63 | 1013.9 |
| 20260507202530 | 63 | 178 | 4.3 | 6.1 | 0.00 | 0.01 | 0.01 | 63 | 1013.8 |
| 20260507202031 | 63 | 185 | 3.5 | 5.2 | 0.00 | 0.01 | 0.01 | 63 | 1013.7 |
| 20260507201547 | 63 | 189 | 3.5 | 5.2 | 0.00 | 0.01 | 0.01 | 62 | 1013.8 |
| 20260507201032 | 63 | 188 | 3.5 | 5.2 | 0.00 | 0.01 | 0.01 | 62 | 1013.9 |
| 20260507200532 | 63 | 204 | 3.5 | 5.2 | 0.00 | 0.01 | 0.01 | 62 | 1014.0 |
| 20260507200050 | 63 | 202 | 1.7 | 3.5 | 0.00 | 0.01 | 0.01 | 62 | 1014.0 |
| 20260507195531 | 63 | 196 | 1.7 | 4.3 | 0.00 | 0.01 | 0.01 | 63 | 1013.9 |
| 20260507195031 | 64 | 205 | 1.7 | 5.2 | 0.00 | 0.01 | 0.01 | 63 | 1013.9 |
| 20260507194547 | 64 | 360 | 2.6 | 5.2 | 0.00 | 0.01 | 0.01 | 63 | 1013.9 |
| 20260507194031 | 64 | 177 | 3.5 | 5.2 | 0.00 | 0.01 | 0.01 | 64 | 1013.9 |
| 20260507193534 | 64 | 161 | 3.5 | 5.2 | 0.00 | 0.01 | 0.01 | 63 | 1013.8 |
| 20260507193045 | 65 | 171 | 1.7 | 3.5 | 0.00 | 0.01 | 0.01 | 62 | 1013.8 |
| 20260507192531 | 65 | 171 | 2.6 | 4.3 | 0.00 | 0.01 | 0.01 | 63 | 1013.7 |
| 20260507192031 | 65 | 178 | 2.6 | 4.3 | 0.00 | 0.01 | 0.01 | 63 | 1013.6 |
| 20260507191552 | 65 | 196 | 0.9 | 5.2 | 0.00 | 0.01 | 0.01 | 63 | 1013.7 |
| 20260507191031 | 65 | 188 | 1.7 | 5.2 | 0.00 | 0.01 | 0.01 | 64 | 1013.6 |
| 20260507190531 | 64 | 164 | 3.5 | 5.2 | 0.00 | 0.01 | 0.01 | 64 | 1013.6 |
| 20260507190048 | 65 | 155 | 2.6 | 5.2 | 0.00 | 0.01 | 0.01 | 65 | 1013.5 |
| 20260507185532 | 65 | 153 | 2.6 | 4.3 | 0.00 | 0.01 | 0.01 | 64 | 1013.5 |
| 20260507185031 | 66 | 152 | 2.6 | 3.5 | 0.00 | 0.01 | 0.01 | 62 | 1013.5 |
| 20260507184547 | 67 | 148 | 1.7 | 2.6 | 0.00 | 0.01 | 0.01 | 60 | 1013.5 |
| 20260507184032 | 67 | 118 | 0.9 | 1.7 | 0.00 | 0.01 | 0.01 | 58 | 1013.5 |
| 20260507183534 | 67 | 118 | 0.0 | 1.7 | 0.00 | 0.01 | 0.01 | 57 | 1013.6 |
| 20260507183049 | 67 | 118 | 0.0 | 1.7 | 0.00 | 0.01 | 0.01 | 58 | 1013.5 |
| 20260507182531 | 67 | 118 | 0.9 | 1.7 | 0.00 | 0.01 | 0.01 | 58 | 1013.5 |
| 20260507182033 | 67 | 118 | 0.9 | 1.7 | 0.00 | 0.01 | 0.01 | 58 | 1013.6 |
| 20260507181546 | 68 | 118 | 0.9 | 1.7 | 0.00 | 0.01 | 0.01 | 58 | 1013.6 |
| 20260507181031 | 68 | 118 | 0.0 | 1.7 | 0.00 | 0.01 | 0.01 | 58 | 1013.6 |
| 20260507180530 | 68 | 118 | 0.0 | 3.5 | 0.00 | 0.01 | 0.01 | 57 | 1013.6 |
| 20260507180054 | 68 | 113 | 0.9 | 3.5 | 0.00 | 0.01 | 0.01 | 57 | 1013.4 |
| 20260507175531 | 68 | 105 | 1.7 | 3.5 | 0.00 | 0.01 | 0.01 | 57 | 1013.4 |
| 20260507175031 | 68 | 103 | 1.7 | 3.5 | 0.00 | 0.01 | 0.01 | 57 | 1013.4 |
| 20260507174603 | 68 | 114 | 1.7 | 2.6 | 0.00 | 0.01 | 0.01 | 57 | 1013.3 |
| 20260507174031 | 68 | 107 | 1.7 | 3.5 | 0.00 | 0.01 | 0.01 | 57 | 1013.2 |
| 20260507173531 | 69 | 121 | 1.7 | 3.5 | 0.00 | 0.01 | 0.01 | 56 | 1013.2 |
| 20260507173049 | 69 | 120 | 1.7 | 3.5 | 0.00 | 0.01 | 0.01 | 55 | 1013.3 |
| 20260507172531 | 70 | 138 | 0.9 | 2.6 | 0.00 | 0.01 | 0.01 | 50 | 1013.2 |
| 20260507172033 | 70 | 0 | 0.0 | 2.6 | 0.00 | 0.01 | 0.01 | 47 | 1013.2 |
| 20260507171601 | 70 | 191 | 0.9 | 3.5 | 0.00 | 0.01 | 0.01 | 47 | 1013.1 |
| 20260507171031 | 70 | 188 | 1.7 | 3.5 | 0.00 | 0.01 | 0.01 | 47 | 1013.2 |
| 20260507170532 | 70 | 178 | 0.9 | 3.5 | 0.00 | 0.01 | 0.01 | 48 | 1013.1 |
| 20260507170049 | 70 | 192 | 2.6 | 3.5 | 0.00 | 0.01 | 0.01 | 47 | 1013.0 |
| 20260507165531 | 70 | 11 | 1.7 | 3.5 | 0.00 | 0.01 | 0.01 | 46 | 1013.1 |
| 20260507165031 | 71 | 24 | 0.0 | 2.6 | 0.00 | 0.01 | 0.01 | 45 | 1013.1 |
| 20260507164550 | 71 | 18 | 0.9 | 4.3 | 0.00 | 0.01 | 0.01 | 45 | 1013.1 |
| 20260507164032 | 71 | 41 | 1.7 | 4.3 | 0.00 | 0.01 | 0.01 | 46 | 1013.1 |
| 20260507163531 | 71 | 34 | 2.6 | 3.5 | 0.00 | 0.01 | 0.01 | 47 | 1013.0 |
| 20260507163052 | 71 | 204 | 0.0 | 2.6 | 0.00 | 0.01 | 0.01 | 46 | 1013.0 |
| 20260507162532 | 71 | 34 | 0.0 | 2.6 | 0.00 | 0.01 | 0.01 | 46 | 1013.0 |
| 20260507162032 | 71 | 35 | 0.9 | 2.6 | 0.00 | 0.01 | 0.01 | 47 | 1013.0 |
| 20260507161548 | 71 | 200 | 0.0 | 2.6 | 0.00 | 0.01 | 0.01 | 47 | 1013.0 |
| 20260507161030 | 71 | 190 | 0.9 | 2.6 | 0.00 | 0.01 | 0.01 | 46 | 1013.0 |
| 20260507160531 | 71 | 5 | 0.9 | 2.6 | 0.00 | 0.01 | 0.01 | 47 | 1013.0 |
| 20260507160052 | 71 | 185 | 0.9 | 1.7 | 0.00 | 0.01 | 0.01 | 47 | 1013.0 |
| 20260507155531 | 71 | 143 | 0.0 | 0.9 | 0.00 | 0.01 | 0.01 | 47 | 1013.0 |
| 20260507155030 | 71 | 0 | 0.0 | 3.5 | 0.00 | 0.01 | 0.01 | 47 | 1013.2 |
| 20260507154550 | 71 | 0 | 0.0 | 3.5 | 0.00 | 0.01 | 0.01 | 47 | 1013.1 |
| 20260507154033 | 71 | 174 | 0.0 | 3.5 | 0.00 | 0.01 | 0.01 | 46 | 1013.1 |
| 20260507153531 | 71 | 139 | 0.9 | 4.3 | 0.00 | 0.01 | 0.01 | 47 | 1013.2 |
| 20260507153049 | 71 | 140 | 0.9 | 4.3 | 0.00 | 0.01 | 0.01 | 47 | 1013.2 |
| 20260507152533 | 71 | 157 | 1.7 | 4.3 | 0.00 | 0.01 | 0.01 | 47 | 1013.3 |
| 20260507152031 | 71 | 162 | 0.0 | 1.7 | 0.00 | 0.01 | 0.01 | 47 | 1013.2 |
| 20260507151548 | 71 | 164 | 0.0 | 1.7 | 0.00 | 0.01 | 0.01 | 47 | 1013.2 |
| 20260507151031 | 70 | 144 | 0.9 | 2.6 | 0.00 | 0.01 | 0.01 | 48 | 1013.2 |
| 20260507150531 | 70 | 116 | 0.0 | 2.6 | 0.00 | 0.01 | 0.01 | 49 | 1013.2 |
| 20260507150052 | 70 | 87 | 0.9 | 6.1 | 0.00 | 0.01 | 0.01 | 49 | 1013.3 |
| 20260507145531 | 70 | 156 | 1.7 | 6.1 | 0.00 | 0.01 | 0.01 | 49 | 1013.3 |
| 20260507145034 | 71 | 109 | 1.7 | 5.2 | 0.00 | 0.01 | 0.01 | 48 | 1013.3 |
| 20260507144552 | 71 | 97 | 1.7 | 3.5 | 0.00 | 0.01 | 0.01 | 48 | 1013.4 |
| 20260507144031 | 71 | 83 | 0.9 | 3.5 | 0.00 | 0.01 | 0.01 | 48 | 1013.4 |
| 20260507143530 | 71 | 0 | 0.9 | 3.5 | 0.00 | 0.01 | 0.01 | 48 | 1013.4 |
| 20260507143051 | 71 | 175 | 0.9 | 2.6 | 0.00 | 0.01 | 0.01 | 50 | 1013.4 |
| 20260507142531 | 70 | 194 | 0.0 | 2.6 | 0.00 | 0.01 | 0.01 | 49 | 1013.4 |
| 20260507142030 | 70 | 124 | 0.0 | 6.1 | 0.00 | 0.01 | 0.01 | 50 | 1013.5 |
| 20260507141548 | 70 | 156 | 2.6 | 6.1 | 0.00 | 0.01 | 0.01 | 50 | 1013.6 |
| 20260507141031 | 70 | 102 | 1.7 | 6.1 | 0.00 | 0.01 | 0.01 | 51 | 1013.7 |
| 20260507140531 | 70 | 121 | 1.7 | 6.1 | 0.00 | 0.01 | 0.01 | 50 | 1013.7 |
| 20260507135531 | 69 | 93 | 2.6 | 6.1 | 0.00 | 0.01 | 0.01 | 53 | 1013.8 |
| 20260507135031 | 70 | 80 | 2.6 | 6.1 | 0.00 | 0.01 | 0.01 | 52 | 1013.9 |
| 20260507134544 | 70 | 103 | 2.6 | 6.1 | 0.00 | 0.01 | 0.01 | 51 | 1014.0 |
| 20260507134031 | 70 | 90 | 1.7 | 3.5 | 0.00 | 0.01 | 0.01 | 52 | 1014.0 |
| 20260507133531 | 70 | 5 | 1.7 | 5.2 | 0.00 | 0.01 | 0.01 | 50 | 1014.0 |
| 20260507133058 | 70 | 0 | 1.7 | 5.2 | 0.00 | 0.01 | 0.01 | 51 | 1014.1 |
| 20260507132530 | 70 | 186 | 2.6 | 5.2 | 0.00 | 0.01 | 0.01 | 51 | 1014.2 |
| 20260507132034 | 69 | 12 | 0.9 | 5.2 | 0.00 | 0.01 | 0.01 | 55 | 1014.2 |
| 20260507131549 | 69 | 30 | 2.6 | 7.8 | 0.00 | 0.01 | 0.01 | 52 | 1014.3 |
| 20260507131031 | 69 | 36 | 3.5 | 7.8 | 0.00 | 0.01 | 0.01 | 52 | 1014.3 |
| 20260507130530 | 70 | 202 | 4.3 | 7.8 | 0.00 | 0.01 | 0.01 | 51 | 1014.4 |
| 20260507130103 | 69 | 27 | 3.5 | 7.8 | 0.00 | 0.01 | 0.01 | 56 | 1014.5 |
| 20260507125531 | 68 | 57 | 0.9 | 8.7 | 0.00 | 0.01 | 0.01 | 56 | 1014.4 |
| 20260507125031 | 68 | 201 | 5.2 | 9.6 | 0.00 | 0.01 | 0.01 | 55 | 1014.5 |
| 20260507124607 | 69 | 68 | 3.5 | 9.6 | 0.00 | 0.01 | 0.01 | 56 | 1014.6 |
| 20260507124034 | 68 | 5 | 6.1 | 9.6 | 0.00 | 0.01 | 0.01 | 57 | 1014.6 |
| 20260507123533 | 68 | 61 | 5.2 | 9.6 | 0.00 | 0.01 | 0.01 | 56 | 1014.5 |
| 20260507123045 | 68 | 196 | 3.5 | 12.2 | 0.00 | 0.01 | 0.01 | 57 | 1014.5 |
| 20260507122532 | 68 | 27 | 8.7 | 12.2 | 0.00 | 0.01 | 0.01 | 57 | 1014.5 |
| 20260507122032 | 68 | 23 | 6.1 | 12.2 | 0.00 | 0.01 | 0.01 | 58 | 1014.5 |
| 20260507121544 | 68 | 20 | 7.8 | 12.2 | 0.00 | 0.01 | 0.01 | 58 | 1014.5 |
| 20260507121032 | 68 | 15 | 4.3 | 9.6 | 0.00 | 0.01 | 0.01 | 58 | 1014.6 |
| 20260507120532 | 68 | 360 | 5.2 | 9.6 | 0.00 | 0.01 | 0.01 | 57 | 1014.6 |
| 20260507120041 | 67 | 19 | 2.6 | 8.7 | 0.00 | 0.01 | 0.01 | 56 | 1014.6 |
| 20260507115532 | 67 | 204 | 2.6 | 8.7 | 0.00 | 0.01 | 0.01 | 57 | 1014.6 |
| 20260507115033 | 67 | 186 | 5.2 | 8.7 | 0.00 | 0.01 | 0.01 | 57 | 1014.6 |
| 20260507114607 | 67 | 15 | 5.2 | 9.6 | 0.00 | 0.01 | 0.01 | 59 | 1014.6 |
| 20260507114034 | 67 | 188 | 6.1 | 9.6 | 0.00 | 0.01 | 0.01 | 58 | 1014.7 |
| 20260507113532 | 67 | 39 | 1.7 | 4.3 | 0.00 | 0.01 | 0.01 | 59 | 1014.7 |
| 20260507113052 | 67 | 38 | 0.9 | 5.2 | 0.00 | 0.01 | 0.01 | 59 | 1014.9 |
| 20260507112531 | 67 | 9 | 1.7 | 6.1 | 0.00 | 0.01 | 0.01 | 59 | 1014.8 |
| 20260507112032 | 67 | 23 | 1.7 | 6.1 | 0.00 | 0.01 | 0.01 | 59 | 1014.7 |
| 20260507111548 | 67 | 175 | 2.6 | 8.7 | 0.00 | 0.01 | 0.01 | 58 | 1014.8 |
| 20260507111031 | 67 | 191 | 4.3 | 8.7 | 0.00 | 0.01 | 0.01 | 58 | 1014.9 |
| 20260507110531 | 67 | 9 | 1.7 | 7.8 | 0.00 | 0.01 | 0.01 | 59 | 1014.8 |
| 20260507110048 | 67 | 47 | 2.6 | 7.8 | 0.00 | 0.01 | 0.01 | 59 | 1014.9 |
| 20260507105531 | 67 | 360 | 5.2 | 7.8 | 0.00 | 0.01 | 0.01 | 59 | 1014.9 |
| 20260507105032 | 68 | 179 | 2.6 | 7.0 | 0.00 | 0.01 | 0.01 | 58 | 1014.9 |
| 20260507104553 | 68 | 27 | 1.7 | 6.1 | 0.00 | 0.01 | 0.01 | 58 | 1014.9 |
| 20260507104032 | 68 | 165 | 0.0 | 6.1 | 0.00 | 0.01 | 0.01 | 57 | 1014.9 |
| 20260507103532 | 67 | 144 | 2.6 | 6.1 | 0.00 | 0.01 | 0.01 | 58 | 1015.1 |
| 20260507103049 | 67 | 180 | 1.7 | 6.1 | 0.00 | 0.01 | 0.01 | 59 | 1015.1 |
| 20260507102532 | 66 | 144 | 1.7 | 7.8 | 0.00 | 0.01 | 0.01 | 60 | 1015.1 |
| 20260507102032 | 66 | 158 | 4.3 | 7.8 | 0.00 | 0.01 | 0.01 | 60 | 1015.2 |
| 20260507101551 | 66 | 186 | 3.5 | 7.0 | 0.00 | 0.01 | 0.01 | 61 | 1015.2 |
| 20260507101034 | 66 | 194 | 2.6 | 7.0 | 0.00 | 0.01 | 0.01 | 63 | 1015.2 |
| 20260507100532 | 65 | 26 | 4.3 | 7.0 | 0.00 | 0.01 | 0.01 | 61 | 1015.3 |
| 20260507100049 | 65 | 79 | 0.9 | 5.2 | 0.00 | 0.01 | 0.01 | 62 | 1015.3 |
| 20260507095533 | 65 | 19 | 1.7 | 5.2 | 0.00 | 0.01 | 0.01 | 62 | 1015.2 |
| 20260507095032 | 65 | 86 | 2.6 | 5.2 | 0.00 | 0.01 | 0.01 | 61 | 1015.2 |
| 20260507094548 | 65 | 67 | 1.7 | 7.0 | 0.00 | 0.01 | 0.01 | 63 | 1015.2 |
| 20260507094031 | 64 | 22 | 2.6 | 7.0 | 0.00 | 0.01 | 0.01 | 63 | 1015.2 |
| 20260507093531 | 64 | 26 | 2.6 | 7.0 | 0.00 | 0.01 | 0.01 | 63 | 1015.3 |
| 20260507093046 | 64 | 201 | 2.6 | 7.0 | 0.00 | 0.01 | 0.01 | 63 | 1015.3 |
| 20260507092530 | 64 | 18 | 1.7 | 5.2 | 0.00 | 0.01 | 0.01 | 64 | 1015.2 |
| 20260507092031 | 64 | 13 | 1.7 | 5.2 | 0.00 | 0.01 | 0.01 | 64 | 1015.2 |
| 20260507091546 | 64 | 360 | 2.6 | 5.2 | 0.00 | 0.01 | 0.01 | 63 | 1015.3 |
| 20260507091030 | 64 | 202 | 2.6 | 4.3 | 0.00 | 0.01 | 0.01 | 64 | 1015.3 |
| 20260507090531 | 64 | 35 | 1.7 | 3.5 | 0.00 | 0.01 | 0.01 | 64 | 1015.3 |
| 20260507090041 | 64 | 11 | 0.9 | 4.3 | 0.00 | 0.01 | 0.01 | 64 | 1015.3 |
| 20260507085531 | 64 | 34 | 1.7 | 4.3 | 0.00 | 0.01 | 0.01 | 65 | 1015.3 |
| 20260507085031 | 64 | 5 | 1.7 | 3.5 | 0.00 | 0.01 | 0.01 | 66 | 1015.3 |
| 20260507084550 | 64 | 83 | 0.9 | 3.5 | 0.00 | 0.01 | 0.01 | 69 | 1015.2 |
| 20260507084031 | 63 | 98 | 0.9 | 3.5 | 0.00 | 0.01 | 0.01 | 70 | 1015.2 |
| 20260507083532 | 63 | 80 | 1.7 | 2.6 | 0.00 | 0.01 | 0.01 | 71 | 1015.3 |
| 20260507083049 | 62 | 150 | 0.0 | 2.6 | 0.00 | 0.01 | 0.01 | 73 | 1015.3 |
| 20260507082530 | 61 | 0 | 0.0 | 5.2 | 0.00 | 0.01 | 0.01 | 74 | 1015.4 |
| 20260507082030 | 61 | 116 | 0.9 | 6.1 | 0.00 | 0.01 | 0.01 | 75 | 1015.3 |
| 20260507081547 | 61 | 100 | 3.5 | 6.1 | 0.00 | 0.01 | 0.01 | 76 | 1015.3 |
| 20260507081032 | 60 | 78 | 1.7 | 6.1 | 0.00 | 0.01 | 0.01 | 79 | 1015.4 |
| 20260507080531 | 60 | 138 | 2.6 | 6.1 | 0.00 | 0.01 | 0.01 | 79 | 1015.5 |
| 20260507080045 | 59 | 105 | 2.6 | 7.8 | 0.00 | 0.01 | 0.01 | 79 | 1015.5 |
| 20260507075530 | 59 | 129 | 1.7 | 7.8 | 0.00 | 0.01 | 0.01 | 81 | 1015.4 |
| 20260507075033 | 58 | 105 | 5.2 | 7.8 | 0.00 | 0.01 | 0.01 | 81 | 1015.4 |
| 20260507074556 | 58 | 125 | 3.5 | 7.0 | 0.00 | 0.01 | 0.01 | 82 | 1015.4 |
| 20260507074030 | 58 | 111 | 1.7 | 7.0 | 0.00 | 0.01 | 0.01 | 83 | 1015.4 |
| 20260507073530 | 58 | 116 | 3.5 | 7.0 | 0.00 | 0.01 | 0.01 | 82 | 1015.4 |
| 20260507073048 | 57 | 117 | 2.6 | 6.1 | 0.00 | 0.01 | 0.01 | 81 | 1015.4 |
| 20260507072530 | 57 | 111 | 2.6 | 6.1 | 0.00 | 0.01 | 0.01 | 80 | 1015.3 |
| 20260507072031 | 57 | 90 | 1.7 | 3.5 | 0.00 | 0.01 | 0.01 | 80 | 1015.4 |
| 20260507071550 | 56 | 116 | 0.9 | 3.5 | 0.00 | 0.01 | 0.01 | 82 | 1015.4 |
| 20260507071030 | 56 | 90 | 1.7 | 3.5 | 0.00 | 0.01 | 0.01 | 83 | 1015.3 |
| 20260507070533 | 56 | 127 | 2.6 | 3.5 | 0.00 | 0.01 | 0.01 | 84 | 1015.4 |
| 20260507070106 | 55 | 112 | 2.6 | 3.5 | 0.00 | 0.01 | 0.01 | 85 | 1015.2 |
| 20260507065529 | 54 | 109 | 0.9 | 3.5 | 0.00 | 0.00 | 0.00 | 85 | 1015.1 |
| 20260507065030 | 54 | 118 | 1.7 | 4.3 | 0.00 | 0.00 | 0.00 | 86 | 1015.3 |
| 20260507064550 | 54 | 128 | 1.7 | 4.3 | 0.00 | 0.00 | 0.00 | 86 | 1015.2 |
| 20260507064030 | 54 | 138 | 1.7 | 3.5 | 0.00 | 0.00 | 0.00 | 86 | 1015.2 |
| 20260507063531 | 54 | 154 | 0.9 | 4.3 | 0.00 | 0.00 | 0.00 | 86 | 1015.2 |
| 20260507063056 | 54 | 140 | 1.7 | 7.0 | 0.00 | 0.00 | 0.00 | 85 | 1015.2 |
| 20260507062531 | 54 | 129 | 2.6 | 7.0 | 0.00 | 0.00 | 0.00 | 85 | 1015.2 |
| 20260507062031 | 54 | 145 | 1.7 | 5.2 | 0.00 | 0.00 | 0.00 | 86 | 1015.2 |
| 20260507061549 | 54 | 161 | 1.7 | 4.3 | 0.00 | 0.00 | 0.00 | 86 | 1015.3 |
| 20260507061032 | 54 | 156 | 0.9 | 2.6 | 0.00 | 0.00 | 0.00 | 86 | 1015.3 |
| 20260507060543 | 54 | 132 | 0.9 | 3.5 | 0.00 | 0.00 | 0.00 | 86 | 1015.2 |
| 20260507060050 | 54 | 136 | 1.7 | 3.5 | 0.00 | 0.00 | 0.00 | 87 | 1015.2 |
| 20260507055531 | 55 | 144 | 1.7 | 4.3 | 0.00 | 0.00 | 0.00 | 87 | 1015.2 |
| 20260507055032 | 55 | 137 | 0.9 | 4.3 | 0.00 | 0.00 | 0.00 | 88 | 1015.2 |
| 20260507054545 | 55 | 165 | 1.7 | 4.3 | 0.00 | 0.00 | 0.00 | 88 | 1015.1 |
| 20260507054031 | 55 | 169 | 1.7 | 4.3 | 0.00 | 0.00 | 0.00 | 88 | 1015.1 |
| 20260507053531 | 55 | 168 | 1.7 | 4.3 | 0.00 | 0.00 | 0.00 | 88 | 1015.1 |
| 20260507053046 | 56 | 158 | 1.7 | 4.3 | 0.00 | 0.00 | 0.00 | 88 | 1015.1 |
| 20260507052532 | 56 | 159 | 0.9 | 2.6 | 0.00 | 0.00 | 0.00 | 88 | 1015.1 |
| 20260507052032 | 55 | 0 | 0.9 | 2.6 | 0.00 | 0.00 | 0.00 | 88 | 1014.9 |
| 20260507051551 | 55 | 140 | 0.9 | 2.6 | 0.00 | 0.00 | 0.00 | 88 | 1014.9 |
| 20260507051031 | 55 | 142 | 0.9 | 1.7 | 0.00 | 0.00 | 0.00 | 88 | 1014.9 |
| 20260507050533 | 55 | 0 | 0.0 | 1.7 | 0.00 | 0.00 | 0.00 | 88 | 1014.8 |
| 20260507050048 | 55 | 182 | 0.0 | 1.7 | 0.00 | 0.00 | 0.00 | 88 | 1014.9 |
| 20260507045532 | 55 | 0 | 0.0 | 1.7 | 0.00 | 0.00 | 0.00 | 88 | 1014.8 |
| 20260507045032 | 55 | 22 | 0.9 | 1.7 | 0.00 | 0.00 | 0.00 | 88 | 1014.7 |
| 20260507044552 | 55 | 23 | 0.0 | 1.7 | 0.00 | 0.00 | 0.00 | 88 | 1014.6 |
| 20260507044032 | 55 | 0 | 0.0 | 1.7 | 0.00 | 0.00 | 0.00 | 88 | 1014.6 |
| 20260507043531 | 55 | 0 | 0.0 | 1.7 | 0.00 | 0.00 | 0.00 | 88 | 1014.6 |
| 20260507043049 | 55 | 12 | 0.0 | 1.7 | 0.00 | 0.00 | 0.00 | 88 | 1014.7 |
| 20260507042531 | 55 | 0 | 0.0 | 1.7 | 0.00 | 0.00 | 0.00 | 88 | 1014.6 |
| 20260507042033 | 55 | 0 | 0.0 | 2.6 | 0.00 | 0.00 | 0.00 | 88 | 1014.6 |
| 20260507041549 | 55 | 0 | 0.0 | 2.6 | 0.00 | 0.00 | 0.00 | 88 | 1014.5 |
| 20260507041033 | 55 | 12 | 0.9 | 2.6 | 0.00 | 0.00 | 0.00 | 87 | 1014.3 |
| 20260507040533 | 55 | 16 | 1.7 | 2.6 | 0.00 | 0.00 | 0.00 | 87 | 1014.2 |
| 20260507040049 | 55 | 49 | 0.0 | 2.6 | 0.00 | 0.00 | 0.00 | 87 | 1014.2 |
| 20260507035531 | 55 | 38 | 0.9 | 3.5 | 0.00 | 0.00 | 0.00 | 87 | 1014.2 |
| 20260507035032 | 55 | 11 | 0.9 | 3.5 | 0.00 | 0.00 | 0.00 | 87 | 1014.1 |
| 20260507034547 | 55 | 5 | 1.7 | 3.5 | 0.00 | 0.00 | 0.00 | 87 | 1014.1 |
| 20260507034031 | 56 | 25 | 0.9 | 3.5 | 0.00 | 0.00 | 0.00 | 87 | 1014.2 |
| 20260507033533 | 56 | 5 | 0.9 | 5.2 | 0.00 | 0.00 | 0.00 | 87 | 1014.1 |
| 20260507033048 | 56 | 198 | 2.6 | 5.2 | 0.00 | 0.00 | 0.00 | 87 | 1014.1 |
| 20260507032534 | 55 | 201 | 3.5 | 7.0 | 0.00 | 0.00 | 0.00 | 87 | 1014.1 |
| 20260507032032 | 55 | 360 | 3.5 | 7.0 | 0.00 | 0.00 | 0.00 | 87 | 1014.1 |
| 20260507031547 | 55 | 205 | 3.5 | 7.0 | 0.00 | 0.00 | 0.00 | 88 | 1014.0 |
| 20260507031032 | 56 | 205 | 5.2 | 7.0 | 0.00 | 0.00 | 0.00 | 88 | 1014.1 |
| 20260507030532 | 57 | 190 | 3.5 | 5.2 | 0.00 | 0.00 | 0.00 | 89 | 1014.1 |
| 20260507030050 | 57 | 205 | 0.9 | 2.6 | 0.00 | 0.00 | 0.00 | 89 | 1014.0 |
| 20260507025530 | 57 | 44 | 0.0 | 1.7 | 0.00 | 0.01 | 0.00 | 89 | 1013.9 |
| 20260507025032 | 57 | 0 | 0.9 | 7.0 | 0.00 | 0.01 | 0.00 | 89 | 1013.9 |
| 20260507024549 | 57 | 0 | 0.9 | 7.0 | 0.00 | 0.01 | 0.00 | 89 | 1013.9 |
| 20260507024032 | 57 | 173 | 3.5 | 7.0 | 0.00 | 0.00 | 0.00 | 89 | 1013.9 |
| 20260507023531 | 57 | 166 | 2.6 | 7.0 | 0.00 | 0.00 | 0.00 | 89 | 1014.0 |
| 20260507023047 | 57 | 154 | 3.5 | 7.8 | 0.00 | 0.00 | 0.00 | 89 | 1013.8 |
| 20260507022532 | 57 | 112 | 4.3 | 7.8 | 0.00 | 0.00 | 0.00 | 89 | 1013.8 |
| 20260507022032 | 58 | 102 | 2.6 | 7.0 | 0.00 | 0.00 | 0.00 | 89 | 1013.8 |
| 20260507021547 | 57 | 102 | 3.5 | 7.8 | 0.00 | 0.00 | 0.00 | 89 | 1013.8 |
| 20260507021034 | 58 | 101 | 4.3 | 7.8 | 0.00 | 0.00 | 0.00 | 88 | 1013.8 |
| 20260507020532 | 58 | 87 | 2.6 | 6.1 | 0.00 | 0.00 | 0.00 | 89 | 1013.7 |
| 20260507020046 | 58 | 114 | 0.9 | 3.5 | 0.00 | 0.00 | 0.00 | 88 | 1013.7 |
| 20260507015534 | 58 | 0 | 0.9 | 3.5 | 0.00 | 0.01 | 0.00 | 88 | 1013.8 |
| 20260507015032 | 58 | 144 | 0.9 | 5.2 | 0.00 | 0.01 | 0.00 | 88 | 1013.7 |
| 20260507014554 | 58 | 134 | 1.7 | 7.0 | 0.00 | 0.01 | 0.00 | 88 | 1013.6 |
| 20260507014033 | 58 | 106 | 2.6 | 7.8 | 0.00 | 0.01 | 0.00 | 88 | 1013.5 |
| 20260507013531 | 58 | 99 | 3.5 | 8.7 | 0.00 | 0.01 | 0.00 | 88 | 1013.5 |
| 20260507013101 | 58 | 101 | 4.3 | 9.6 | 0.00 | 0.01 | 0.00 | 87 | 1013.5 |
| 20260507012531 | 58 | 80 | 5.2 | 9.6 | 0.00 | 0.01 | 0.00 | 87 | 1013.5 |
| 20260507012032 | 59 | 89 | 4.3 | 7.0 | 0.00 | 0.01 | 0.00 | 87 | 1013.5 |
| 20260507011548 | 58 | 90 | 2.6 | 5.2 | 0.00 | 0.01 | 0.00 | 86 | 1013.6 |
| 20260507011033 | 58 | 93 | 1.7 | 2.6 | 0.00 | 0.01 | 0.00 | 86 | 1013.6 |
| 20260507010532 | 58 | 100 | 0.9 | 2.6 | 0.00 | 0.01 | 0.00 | 86 | 1013.6 |
| 20260507010056 | 59 | 113 | 0.0 | 2.6 | 0.00 | 0.01 | 0.00 | 86 | 1013.6 |
| 20260507005532 | 59 | 0 | 0.0 | 2.6 | 0.00 | 0.01 | 0.00 | 86 | 1013.6 |
| 20260507005031 | 59 | 113 | 0.0 | 2.6 | 0.00 | 0.01 | 0.00 | 86 | 1013.6 |
| 20260507004547 | 59 | 112 | 0.9 | 2.6 | 0.00 | 0.01 | 0.00 | 86 | 1013.6 |
| 20260507004031 | 59 | 0 | 0.9 | 2.6 | 0.00 | 0.01 | 0.00 | 85 | 1013.7 |
| 20260507003533 | 59 | 0 | 0.0 | 1.7 | 0.00 | 0.01 | 0.00 | 85 | 1013.6 |
| 20260507003042 | 59 | 0 | 0.0 | 3.5 | 0.00 | 0.01 | 0.00 | 85 | 1013.7 |
| 20260507002531 | 59 | 126 | 1.7 | 6.1 | 0.00 | 0.01 | 0.00 | 84 | 1013.7 |
| 20260507002031 | 59 | 122 | 2.6 | 7.8 | 0.00 | 0.01 | 0.00 | 85 | 1013.6 |
| 20260507001552 | 59 | 115 | 4.3 | 7.8 | 0.00 | 0.01 | 0.00 | 84 | 1013.7 |
| 20260507001030 | 60 | 91 | 2.6 | 3.5 | 0.00 | 0.01 | 0.00 | 84 | 1013.7 |
| 20260507000532 | 60 | 97 | 0.9 | 3.5 | 0.00 | 0.01 | 0.00 | 83 | 1013.7 |
| 20260507000049 | 60 | 116 | 0.9 | 3.5 | 0.00 | 0.01 | 0.00 | 83 | 1013.8 |
| 20260506235531 | 60 | 107 | 1.7 | 3.5 | 0.00 | 0.01 | 0.00 | 82 | 1013.8 |
| 20260506235031 | 60 | 101 | 1.7 | 3.5 | 0.00 | 0.01 | 0.00 | 82 | 1013.8 |
| 20260506234548 | 60 | 97 | 0.9 | 2.6 | 0.00 | 0.01 | 0.00 | 82 | 1013.8 |
| 20260506234031 | 60 | 92 | 0.9 | 3.5 | 0.00 | 0.01 | 0.00 | 81 | 1013.7 |
| 20260506233532 | 60 | 97 | 0.9 | 3.5 | 0.00 | 0.01 | 0.00 | 81 | 1013.8 |
| 20260506233100 | 60 | 125 | 0.0 | 3.5 | 0.00 | 0.01 | 0.00 | 81 | 1013.8 |